Year,Month,Day,Hour,Minute,Value (Times are PST for temperature in C)
2016,04,15,00,00,8.10
2016,04,15,00,01,8.00
2016,04,15,00,02,8.00
2016,04,15,00,03,8.00
2016,04,15,00,04,7.90
2016,04,15,00,05,7.90
2016,04,15,00,06,7.80
2016,04,15,00,07,7.80
2016,04,15,00,08,7.70
2016,04,15,00,09,7.70
2016,04,15,00,10,7.60
2016,04,15,00,11,7.60
2016,04,15,00,12,7.50
2016,04,15,00,13,7.50
2016,04,15,00,14,7.40
2016,04,15,00,15,7.40
2016,04,15,00,16,7.40
2016,04,15,00,17,7.30
2016,04,15,00,18,7.30
2016,04,15,00,19,7.30
2016,04,15,00,20,7.20
2016,04,15,00,21,7.20
2016,04,15,00,22,7.20
2016,04,15,00,23,7.10
2016,04,15,00,24,7.10
2016,04,15,00,25,7.00
2016,04,15,00,26,6.90
2016,04,15,00,27,6.90
2016,04,15,00,28,6.80
2016,04,15,00,29,6.80
2016,04,15,00,30,6.80
2016,04,15,00,31,6.70
2016,04,15,00,32,6.70
2016,04,15,00,33,6.70
2016,04,15,00,34,6.70
2016,04,15,00,35,6.70
2016,04,15,00,36,6.60
2016,04,15,00,37,6.60
2016,04,15,00,38,6.60
2016,04,15,00,39,6.60
2016,04,15,00,40,6.60
2016,04,15,00,41,6.50
2016,04,15,00,42,6.50
2016,04,15,00,43,6.50
2016,04,15,00,44,6.50
2016,04,15,00,45,6.40
2016,04,15,00,46,6.40
2016,04,15,00,47,6.40
2016,04,15,00,48,6.40
2016,04,15,00,49,6.30
2016,04,15,00,50,6.30
2016,04,15,00,51,6.30
2016,04,15,00,52,6.30
2016,04,15,00,53,6.30
2016,04,15,00,54,6.20
2016,04,15,00,55,6.20
2016,04,15,00,56,6.20
2016,04,15,00,57,6.20
2016,04,15,00,58,6.10
2016,04,15,00,59,6.10
2016,04,15,01,00,6.10
2016,04,15,01,01,6.10
2016,04,15,01,02,6.10
2016,04,15,01,03,6.00
2016,04,15,01,04,6.00
2016,04,15,01,05,6.00
2016,04,15,01,06,6.00
2016,04,15,01,07,5.90
2016,04,15,01,08,5.90
2016,04,15,01,09,5.90
2016,04,15,01,10,5.90
2016,04,15,01,11,5.90
2016,04,15,01,12,5.90
2016,04,15,01,13,5.90
2016,04,15,01,14,5.90
2016,04,15,01,15,5.90
2016,04,15,01,16,5.90
2016,04,15,01,17,5.80
2016,04,15,01,18,5.80
2016,04,15,01,19,5.80
2016,04,15,01,20,5.80
2016,04,15,01,21,5.80
2016,04,15,01,22,5.70
2016,04,15,01,23,5.80
2016,04,15,01,24,5.80
2016,04,15,01,25,5.80
2016,04,15,01,26,5.70
2016,04,15,01,27,5.70
2016,04,15,01,28,5.70
2016,04,15,01,29,5.70
2016,04,15,01,30,5.70
2016,04,15,01,31,5.60
2016,04,15,01,32,5.60
2016,04,15,01,33,5.60
2016,04,15,01,34,5.60
2016,04,15,01,35,5.60
2016,04,15,01,36,5.60
2016,04,15,01,37,5.60
2016,04,15,01,38,5.60
2016,04,15,01,39,5.60
2016,04,15,01,40,5.60
2016,04,15,01,41,5.60
2016,04,15,01,42,5.50
2016,04,15,01,43,5.50
2016,04,15,01,44,5.50
2016,04,15,01,45,5.50
2016,04,15,01,46,5.50
2016,04,15,01,47,5.50
2016,04,15,01,48,5.50
2016,04,15,01,49,5.50
2016,04,15,01,50,5.50
2016,04,15,01,51,5.50
2016,04,15,01,52,5.40
2016,04,15,01,53,5.40
2016,04,15,01,54,5.40
2016,04,15,01,55,5.40
2016,04,15,01,56,5.40
2016,04,15,01,57,5.40
2016,04,15,01,58,5.40
2016,04,15,01,59,5.40
2016,04,15,02,00,5.40
2016,04,15,02,01,5.30
2016,04,15,02,02,5.30
2016,04,15,02,03,5.30
2016,04,15,02,04,5.30
2016,04,15,02,05,5.30
2016,04,15,02,06,5.30
2016,04,15,02,07,5.30
2016,04,15,02,08,5.30
2016,04,15,02,09,5.30
2016,04,15,02,10,5.30
2016,04,15,02,11,5.30
2016,04,15,02,12,5.30
2016,04,15,02,13,5.30
2016,04,15,02,14,5.30
2016,04,15,02,15,5.30
2016,04,15,02,16,5.30
2016,04,15,02,17,5.30
2016,04,15,02,18,5.30
2016,04,15,02,19,5.30
2016,04,15,02,20,5.30
2016,04,15,02,21,5.30
2016,04,15,02,22,5.30
2016,04,15,02,23,5.30
2016,04,15,02,24,5.20
2016,04,15,02,25,5.20
2016,04,15,02,26,5.20
2016,04,15,02,27,5.20
2016,04,15,02,28,5.20
2016,04,15,02,29,5.20
2016,04,15,02,30,5.20
2016,04,15,02,31,5.10
2016,04,15,02,32,5.10
2016,04,15,02,33,5.10
2016,04,15,02,34,5.10
2016,04,15,02,35,5.10
2016,04,15,02,36,5.10
2016,04,15,02,37,5.10
2016,04,15,02,38,5.10
2016,04,15,02,39,5.10
2016,04,15,02,40,5.10
2016,04,15,02,41,5.10
2016,04,15,02,42,5.00
2016,04,15,02,43,5.00
2016,04,15,02,44,5.00
2016,04,15,02,45,5.00
2016,04,15,02,46,5.00
2016,04,15,02,47,5.00
2016,04,15,02,48,5.00
2016,04,15,02,49,5.00
2016,04,15,02,50,5.00
2016,04,15,02,51,5.00
2016,04,15,02,52,5.00
2016,04,15,02,53,5.00
2016,04,15,02,54,5.00
2016,04,15,02,55,5.00
2016,04,15,02,56,5.00
2016,04,15,02,57,5.00
2016,04,15,02,58,5.00
2016,04,15,02,59,4.90
2016,04,15,03,00,4.90
2016,04,15,03,01,4.90
2016,04,15,03,02,4.90
2016,04,15,03,03,4.90
2016,04,15,03,04,5.00
2016,04,15,03,05,5.00
2016,04,15,03,06,5.10
2016,04,15,03,07,5.10
2016,04,15,03,08,5.20
2016,04,15,03,09,5.20
2016,04,15,03,10,5.30
2016,04,15,03,11,5.30
2016,04,15,03,12,5.40
2016,04,15,03,13,5.40
2016,04,15,03,14,5.40
2016,04,15,03,15,5.30
2016,04,15,03,16,5.30
2016,04,15,03,17,5.30
2016,04,15,03,18,5.30
2016,04,15,03,19,5.30
2016,04,15,03,20,5.30
2016,04,15,03,21,5.30
2016,04,15,03,22,5.30
2016,04,15,03,23,5.30
2016,04,15,03,24,5.20
2016,04,15,03,25,5.30
2016,04,15,03,26,5.30
2016,04,15,03,27,5.30
2016,04,15,03,28,5.30
2016,04,15,03,29,5.20
2016,04,15,03,30,5.20
2016,04,15,03,31,5.20
2016,04,15,03,32,5.20
2016,04,15,03,33,5.20
2016,04,15,03,34,5.20
2016,04,15,03,35,5.20
2016,04,15,03,36,5.20
2016,04,15,03,37,5.20
2016,04,15,03,38,5.10
2016,04,15,03,39,5.10
2016,04,15,03,40,5.10
2016,04,15,03,41,5.10
2016,04,15,03,42,5.10
2016,04,15,03,43,5.00
2016,04,15,03,44,5.00
2016,04,15,03,45,5.00
2016,04,15,03,46,5.00
2016,04,15,03,47,5.00
2016,04,15,03,48,5.00
2016,04,15,03,49,4.90
2016,04,15,03,50,4.90
2016,04,15,03,51,4.90
2016,04,15,03,52,4.80
2016,04,15,03,53,4.80
2016,04,15,03,54,4.80
2016,04,15,03,55,4.80
2016,04,15,03,56,4.80
2016,04,15,03,57,4.80
2016,04,15,03,58,4.80
2016,04,15,03,59,4.70
2016,04,15,04,00,4.70
2016,04,15,04,01,4.70
2016,04,15,04,02,4.70
2016,04,15,04,03,4.70
2016,04,15,04,04,4.70
2016,04,15,04,05,4.70
2016,04,15,04,06,4.70
2016,04,15,04,07,4.60
2016,04,15,04,08,4.60
2016,04,15,04,09,4.60
2016,04,15,04,10,4.60
2016,04,15,04,11,4.60
2016,04,15,04,12,4.60
2016,04,15,04,13,4.70
2016,04,15,04,14,4.80
2016,04,15,04,15,4.90
2016,04,15,04,16,4.90
2016,04,15,04,17,4.90
2016,04,15,04,18,4.90
2016,04,15,04,19,4.90
2016,04,15,04,20,4.90
2016,04,15,04,21,4.90
2016,04,15,04,22,4.90
2016,04,15,04,23,4.90
2016,04,15,04,24,4.90
2016,04,15,04,25,4.90
2016,04,15,04,26,4.90
2016,04,15,04,27,4.90
2016,04,15,04,28,4.90
2016,04,15,04,29,4.80
2016,04,15,04,30,4.80
2016,04,15,04,31,4.70
2016,04,15,04,32,4.70
2016,04,15,04,33,4.70
2016,04,15,04,34,4.60
2016,04,15,04,35,4.70
2016,04,15,04,36,4.60
2016,04,15,04,37,4.60
2016,04,15,04,38,4.60
2016,04,15,04,39,4.60
2016,04,15,04,40,4.50
2016,04,15,04,41,4.50
2016,04,15,04,42,4.50
2016,04,15,04,43,4.50
2016,04,15,04,44,4.50
2016,04,15,04,45,4.50
2016,04,15,04,46,4.50
2016,04,15,04,47,4.50
2016,04,15,04,48,4.50
2016,04,15,04,49,4.50
2016,04,15,04,50,4.50
2016,04,15,04,51,4.50
2016,04,15,04,52,4.50
2016,04,15,04,53,4.50
2016,04,15,04,54,4.50
2016,04,15,04,55,4.50
2016,04,15,04,56,4.50
2016,04,15,04,57,4.40
2016,04,15,04,58,4.40
2016,04,15,04,59,4.40
2016,04,15,05,00,4.40
2016,04,15,05,01,4.40
2016,04,15,05,02,4.30
2016,04,15,05,03,4.30
2016,04,15,05,04,4.30
2016,04,15,05,05,4.30
2016,04,15,05,06,4.30
2016,04,15,05,07,4.20
2016,04,15,05,08,4.20
2016,04,15,05,09,4.20
2016,04,15,05,10,4.20
2016,04,15,05,11,4.20
2016,04,15,05,12,4.20
2016,04,15,05,13,4.20
2016,04,15,05,14,4.20
2016,04,15,05,15,4.30
2016,04,15,05,16,4.20
2016,04,15,05,17,4.20
2016,04,15,05,18,4.20
2016,04,15,05,19,4.20
2016,04,15,05,20,4.20
2016,04,15,05,21,4.20
2016,04,15,05,22,4.20
2016,04,15,05,23,4.10
2016,04,15,05,24,4.10
2016,04,15,05,25,4.10
2016,04,15,05,26,4.10
2016,04,15,05,27,4.10
2016,04,15,05,28,4.20
2016,04,15,05,29,4.20
2016,04,15,05,30,4.20
2016,04,15,05,31,4.20
2016,04,15,05,32,4.20
2016,04,15,05,33,4.20
2016,04,15,05,34,4.10
2016,04,15,05,35,4.10
2016,04,15,05,36,4.10
2016,04,15,05,37,4.10
2016,04,15,05,38,4.20
2016,04,15,05,39,4.20
2016,04,15,05,40,4.20
2016,04,15,05,41,4.20
2016,04,15,05,42,4.20
2016,04,15,05,43,4.20
2016,04,15,05,44,4.20
2016,04,15,05,45,4.10
2016,04,15,05,46,4.10
2016,04,15,05,47,4.10
2016,04,15,05,48,4.10
2016,04,15,05,49,4.10
2016,04,15,05,50,4.10
2016,04,15,05,51,4.10
2016,04,15,05,52,4.20
2016,04,15,05,53,4.20
2016,04,15,05,54,4.20
2016,04,15,05,55,4.30
2016,04,15,05,56,4.40
2016,04,15,05,57,4.50
2016,04,15,05,58,4.50
2016,04,15,05,59,4.60
2016,04,15,06,00,4.60
2016,04,15,06,01,4.70
2016,04,15,06,02,4.70
2016,04,15,06,03,4.70
2016,04,15,06,04,4.70
2016,04,15,06,05,4.80
2016,04,15,06,06,4.80
2016,04,15,06,07,4.80
2016,04,15,06,08,4.80
2016,04,15,06,09,4.70
2016,04,15,06,10,4.70
2016,04,15,06,11,4.70
2016,04,15,06,12,4.70
2016,04,15,06,13,4.70
2016,04,15,06,14,4.70
2016,04,15,06,15,4.70
2016,04,15,06,16,4.70
2016,04,15,06,17,4.70
2016,04,15,06,18,4.70
2016,04,15,06,19,4.70
2016,04,15,06,20,4.70
2016,04,15,06,21,4.70
2016,04,15,06,22,4.70
2016,04,15,06,23,4.70
2016,04,15,06,24,4.70
2016,04,15,06,25,4.60
2016,04,15,06,26,4.60
2016,04,15,06,27,4.70
2016,04,15,06,28,4.70
2016,04,15,06,29,4.70
2016,04,15,06,30,4.70
2016,04,15,06,31,4.80
2016,04,15,06,32,4.80
2016,04,15,06,33,4.90
2016,04,15,06,34,4.90
2016,04,15,06,35,5.00
2016,04,15,06,36,5.00
2016,04,15,06,37,5.10
2016,04,15,06,38,5.20
2016,04,15,06,39,5.30
2016,04,15,06,40,5.30
2016,04,15,06,41,5.40
2016,04,15,06,42,5.50
2016,04,15,06,43,5.70
2016,04,15,06,44,5.80
2016,04,15,06,45,5.80
2016,04,15,06,46,5.90
2016,04,15,06,47,5.90
2016,04,15,06,48,5.90
2016,04,15,06,49,5.90
2016,04,15,06,50,5.90
2016,04,15,06,51,5.90
2016,04,15,06,52,5.80
2016,04,15,06,53,5.80
2016,04,15,06,54,5.70
2016,04,15,06,55,5.70
2016,04,15,06,56,5.60
2016,04,15,06,57,5.60
2016,04,15,06,58,5.50
2016,04,15,06,59,5.50
2016,04,15,07,00,5.40
2016,04,15,07,01,5.40
2016,04,15,07,02,5.30
2016,04,15,07,03,5.40
2016,04,15,07,04,5.40
2016,04,15,07,05,5.40
2016,04,15,07,06,5.40
2016,04,15,07,07,5.40
2016,04,15,07,08,5.40
2016,04,15,07,09,5.40
2016,04,15,07,10,5.40
2016,04,15,07,11,5.50
2016,04,15,07,12,5.50
2016,04,15,07,13,5.50
2016,04,15,07,14,5.50
2016,04,15,07,15,5.40
2016,04,15,07,16,5.40
2016,04,15,07,17,5.30
2016,04,15,07,18,5.30
2016,04,15,07,19,5.30
2016,04,15,07,20,5.30
2016,04,15,07,21,5.30
2016,04,15,07,22,5.30
2016,04,15,07,23,5.30
2016,04,15,07,24,5.30
2016,04,15,07,25,5.40
2016,04,15,07,26,5.40
2016,04,15,07,27,5.40
2016,04,15,07,28,5.40
2016,04,15,07,29,5.40
2016,04,15,07,30,5.50
2016,04,15,07,31,5.50
2016,04,15,07,32,5.50
2016,04,15,07,33,5.50
2016,04,15,07,34,5.50
2016,04,15,07,35,5.60
2016,04,15,07,36,5.60
2016,04,15,07,37,5.60
2016,04,15,07,38,5.60
2016,04,15,07,39,5.60
2016,04,15,07,40,5.60
2016,04,15,07,41,5.70
2016,04,15,07,42,5.60
2016,04,15,07,43,5.60
2016,04,15,07,44,5.60
2016,04,15,07,45,5.60
2016,04,15,07,46,5.60
2016,04,15,07,47,5.60
2016,04,15,07,48,5.60
2016,04,15,07,49,5.70
2016,04,15,07,50,5.70
2016,04,15,07,51,5.80
2016,04,15,07,52,5.80
2016,04,15,07,53,5.80
2016,04,15,07,54,5.90
2016,04,15,07,55,5.90
2016,04,15,07,56,6.00
2016,04,15,07,57,6.00
2016,04,15,07,58,6.00
2016,04,15,07,59,6.10
2016,04,15,08,00,6.20
2016,04,15,08,01,6.20
2016,04,15,08,02,6.20
2016,04,15,08,03,6.30
2016,04,15,08,04,6.30
2016,04,15,08,05,6.40
2016,04,15,08,06,6.50
2016,04,15,08,07,6.50
2016,04,15,08,08,6.60
2016,04,15,08,09,6.60
2016,04,15,08,10,6.60
2016,04,15,08,11,6.60
2016,04,15,08,12,6.70
2016,04,15,08,13,6.70
2016,04,15,08,14,6.70
2016,04,15,08,15,6.70
2016,04,15,08,16,6.70
2016,04,15,08,17,6.80
2016,04,15,08,18,6.80
2016,04,15,08,19,6.80
2016,04,15,08,20,6.90
2016,04,15,08,21,6.90
2016,04,15,08,22,6.90
2016,04,15,08,23,6.90
2016,04,15,08,24,7.00
2016,04,15,08,25,7.00
2016,04,15,08,26,7.00
2016,04,15,08,27,7.00
2016,04,15,08,28,7.00
2016,04,15,08,29,7.10
2016,04,15,08,30,7.10
2016,04,15,08,31,7.10
2016,04,15,08,32,7.20
2016,04,15,08,33,7.30
2016,04,15,08,34,7.30
2016,04,15,08,35,7.40
2016,04,15,08,36,7.40
2016,04,15,08,37,7.50
2016,04,15,08,38,7.50
2016,04,15,08,39,7.60
2016,04,15,08,40,7.60
2016,04,15,08,41,7.60
2016,04,15,08,42,7.70
2016,04,15,08,43,7.70
2016,04,15,08,44,7.70
2016,04,15,08,45,7.80
2016,04,15,08,46,7.80
2016,04,15,08,47,7.80
2016,04,15,08,48,7.90
2016,04,15,08,49,7.90
2016,04,15,08,50,8.00
2016,04,15,08,51,8.10
2016,04,15,08,52,8.10
2016,04,15,08,53,8.20
2016,04,15,08,54,8.20
2016,04,15,08,55,8.20
2016,04,15,08,56,8.30
2016,04,15,08,57,8.30
2016,04,15,08,58,8.40
2016,04,15,08,59,8.50
2016,04,15,09,00,8.50
2016,04,15,09,01,8.60
2016,04,15,09,02,8.70
2016,04,15,09,03,8.70
2016,04,15,09,04,8.80
2016,04,15,09,05,8.90
2016,04,15,09,06,8.90
2016,04,15,09,07,9.00
2016,04,15,09,08,9.10
2016,04,15,09,09,9.10
2016,04,15,09,10,9.10
2016,04,15,09,11,9.10
2016,04,15,09,12,9.10
2016,04,15,09,13,9.10
2016,04,15,09,14,9.10
2016,04,15,09,15,9.10
2016,04,15,09,16,9.20
2016,04,15,09,17,9.20
2016,04,15,09,18,9.30
2016,04,15,09,19,9.30
2016,04,15,09,20,9.40
2016,04,15,09,21,9.40
2016,04,15,09,22,9.40
2016,04,15,09,23,9.40
2016,04,15,09,24,9.40
2016,04,15,09,25,9.40
2016,04,15,09,26,9.40
2016,04,15,09,27,9.50
2016,04,15,09,28,9.50
2016,04,15,09,29,9.60
2016,04,15,09,30,9.60
2016,04,15,09,31,9.70
2016,04,15,09,32,9.80
2016,04,15,09,33,9.80
2016,04,15,09,34,9.80
2016,04,15,09,35,9.90
2016,04,15,09,36,9.90
2016,04,15,09,37,9.90
2016,04,15,09,38,9.90
2016,04,15,09,39,9.90
2016,04,15,09,40,9.90
2016,04,15,09,41,9.90
2016,04,15,09,42,9.90
2016,04,15,09,43,9.90
2016,04,15,09,44,10.00
2016,04,15,09,45,10.00
2016,04,15,09,46,10.00
2016,04,15,09,47,10.00
2016,04,15,09,48,10.00
2016,04,15,09,49,10.00
2016,04,15,09,50,10.10
2016,04,15,09,51,10.10
2016,04,15,09,52,10.20
2016,04,15,09,53,10.20
2016,04,15,09,54,10.20
2016,04,15,09,55,10.30
2016,04,15,09,56,10.40
2016,04,15,09,57,10.40
2016,04,15,09,58,10.40
2016,04,15,09,59,10.40
2016,04,15,10,00,10.40
2016,04,15,10,01,10.40
2016,04,15,10,02,10.30
2016,04,15,10,03,10.30
2016,04,15,10,04,10.30
2016,04,15,10,05,10.30
2016,04,15,10,06,10.30
2016,04,15,10,07,10.30
2016,04,15,10,08,10.40
2016,04,15,10,09,10.40
2016,04,15,10,10,10.40
2016,04,15,10,11,10.30
2016,04,15,10,12,10.30
2016,04,15,10,13,10.30
2016,04,15,10,14,10.30
2016,04,15,10,15,10.30
2016,04,15,10,16,10.30
2016,04,15,10,17,10.40
2016,04,15,10,18,10.40
2016,04,15,10,19,10.50
2016,04,15,10,20,10.50
2016,04,15,10,21,10.50
2016,04,15,10,22,10.60
2016,04,15,10,23,10.60
2016,04,15,10,24,10.50
2016,04,15,10,25,10.50
2016,04,15,10,26,10.50
2016,04,15,10,27,10.50
2016,04,15,10,28,10.50
2016,04,15,10,29,10.50
2016,04,15,10,30,10.50
2016,04,15,10,31,10.50
2016,04,15,10,32,10.50
2016,04,15,10,33,10.50
2016,04,15,10,34,10.40
2016,04,15,10,35,10.30
2016,04,15,10,36,10.30
2016,04,15,10,37,10.30
2016,04,15,10,38,10.30
2016,04,15,10,39,10.30
2016,04,15,10,40,10.20
2016,04,15,10,41,10.20
2016,04,15,10,42,10.30
2016,04,15,10,43,10.30
2016,04,15,10,44,10.30
2016,04,15,10,45,10.30
2016,04,15,10,46,10.30
2016,04,15,10,47,10.40
2016,04,15,10,48,10.40
2016,04,15,10,49,10.40
2016,04,15,10,50,10.50
2016,04,15,10,51,10.50
2016,04,15,10,52,10.50
2016,04,15,10,53,10.50
2016,04,15,10,54,10.50
2016,04,15,10,55,10.60
2016,04,15,10,56,10.60
2016,04,15,10,57,10.60
2016,04,15,10,58,10.60
2016,04,15,10,59,10.60
2016,04,15,11,00,10.60
2016,04,15,11,01,10.60
2016,04,15,11,02,10.60
2016,04,15,11,03,10.60
2016,04,15,11,04,10.60
2016,04,15,11,05,10.60
2016,04,15,11,06,10.70
2016,04,15,11,07,10.70
2016,04,15,11,08,10.70
2016,04,15,11,09,10.70
2016,04,15,11,10,10.80
2016,04,15,11,11,10.90
2016,04,15,11,12,11.00
2016,04,15,11,13,11.00
2016,04,15,11,14,11.10
2016,04,15,11,15,11.10
2016,04,15,11,16,11.10
2016,04,15,11,17,11.20
2016,04,15,11,18,11.20
2016,04,15,11,19,11.20
2016,04,15,11,20,11.20
2016,04,15,11,21,11.30
2016,04,15,11,22,11.30
2016,04,15,11,23,11.40
2016,04,15,11,24,11.40
2016,04,15,11,25,11.30
2016,04,15,11,26,11.30
2016,04,15,11,27,11.20
2016,04,15,11,28,11.20
2016,04,15,11,29,11.20
2016,04,15,11,30,11.20
2016,04,15,11,31,11.20
2016,04,15,11,32,11.20
2016,04,15,11,33,11.20
2016,04,15,11,34,11.20
2016,04,15,11,35,11.20
2016,04,15,11,36,11.20
2016,04,15,11,37,11.20
2016,04,15,11,38,11.30
2016,04,15,11,39,11.30
2016,04,15,11,40,11.40
2016,04,15,11,41,11.40
2016,04,15,11,42,11.40
2016,04,15,11,43,11.50
2016,04,15,11,44,11.50
2016,04,15,11,45,11.50
2016,04,15,11,46,11.50
2016,04,15,11,47,11.50
2016,04,15,11,48,11.50
2016,04,15,11,49,11.50
2016,04,15,11,50,11.70
2016,04,15,11,51,11.70
2016,04,15,11,52,11.70
2016,04,15,11,53,11.70
2016,04,15,11,54,11.70
2016,04,15,11,55,11.70
2016,04,15,11,56,11.70
2016,04,15,11,57,11.70
2016,04,15,11,58,11.60
2016,04,15,11,59,11.60
2016,04,15,12,00,11.50
2016,04,15,12,01,11.50
2016,04,15,12,02,11.50
2016,04,15,12,03,11.50
2016,04,15,12,04,11.40
2016,04,15,12,05,11.40
2016,04,15,12,06,11.50
2016,04,15,12,07,11.50
2016,04,15,12,08,11.60
2016,04,15,12,09,11.60
2016,04,15,12,10,11.60
2016,04,15,12,11,11.60
2016,04,15,12,12,11.50
2016,04,15,12,13,11.40
2016,04,15,12,14,11.30
2016,04,15,12,15,11.20
2016,04,15,12,16,11.20
2016,04,15,12,17,11.10
2016,04,15,12,18,11.10
2016,04,15,12,19,11.10
2016,04,15,12,20,11.10
2016,04,15,12,21,11.10
2016,04,15,12,22,11.10
2016,04,15,12,23,11.10
2016,04,15,12,24,11.10
2016,04,15,12,25,11.10
2016,04,15,12,26,11.10
2016,04,15,12,27,11.10
2016,04,15,12,28,11.10
2016,04,15,12,29,11.10
2016,04,15,12,30,11.10
2016,04,15,12,31,11.10
2016,04,15,12,32,11.10
2016,04,15,12,33,11.10
2016,04,15,12,34,11.10
2016,04,15,12,35,11.20
2016,04,15,12,36,11.20
2016,04,15,12,37,11.10
2016,04,15,12,38,11.00
2016,04,15,12,39,11.00
2016,04,15,12,40,10.90
2016,04,15,12,41,10.80
2016,04,15,12,42,10.80
2016,04,15,12,43,10.80
2016,04,15,12,44,10.70
2016,04,15,12,45,10.70
2016,04,15,12,46,10.70
2016,04,15,12,47,10.80
2016,04,15,12,48,10.80
2016,04,15,12,49,10.80
2016,04,15,12,50,10.80
2016,04,15,12,51,10.80
2016,04,15,12,52,10.80
2016,04,15,12,53,10.90
2016,04,15,12,54,10.90
2016,04,15,12,55,10.90
2016,04,15,12,56,10.90
2016,04,15,12,57,10.90
2016,04,15,12,58,10.90
2016,04,15,12,59,10.90
2016,04,15,13,00,10.90
2016,04,15,13,01,10.90
2016,04,15,13,02,11.00
2016,04,15,13,03,11.00
2016,04,15,13,04,11.00
2016,04,15,13,05,11.00
2016,04,15,13,06,11.00
2016,04,15,13,07,11.10
2016,04,15,13,08,11.10
2016,04,15,13,09,11.10
2016,04,15,13,10,11.20
2016,04,15,13,11,11.20
2016,04,15,13,12,11.20
2016,04,15,13,13,11.20
2016,04,15,13,14,11.20
2016,04,15,13,15,11.20
2016,04,15,13,16,11.20
2016,04,15,13,17,11.20
2016,04,15,13,18,11.20
2016,04,15,13,19,11.20
2016,04,15,13,20,11.20
2016,04,15,13,21,11.20
2016,04,15,13,22,11.30
2016,04,15,13,23,11.30
2016,04,15,13,24,11.30
2016,04,15,13,25,11.40
2016,04,15,13,26,11.40
2016,04,15,13,27,11.40
2016,04,15,13,28,11.50
2016,04,15,13,29,11.50
2016,04,15,13,30,11.60
2016,04,15,13,31,11.70
2016,04,15,13,32,11.70
2016,04,15,13,33,11.70
2016,04,15,13,34,11.70
2016,04,15,13,35,11.60
2016,04,15,13,36,11.60
2016,04,15,13,37,11.60
2016,04,15,13,38,11.60
2016,04,15,13,39,11.70
2016,04,15,13,40,11.70
2016,04,15,13,41,11.80
2016,04,15,13,42,11.80
2016,04,15,13,43,11.80
2016,04,15,13,44,11.80
2016,04,15,13,45,11.70
2016,04,15,13,46,11.70
2016,04,15,13,47,11.60
2016,04,15,13,48,11.60
2016,04,15,13,49,11.60
2016,04,15,13,50,11.50
2016,04,15,13,51,11.40
2016,04,15,13,52,11.40
2016,04,15,13,53,11.30
2016,04,15,13,54,11.30
2016,04,15,13,55,11.30
2016,04,15,13,56,11.20
2016,04,15,13,57,11.20
2016,04,15,13,58,11.30
2016,04,15,13,59,11.20
2016,04,15,14,00,11.20
2016,04,15,14,01,11.30
2016,04,15,14,02,11.20
2016,04,15,14,03,11.30
2016,04,15,14,04,11.30
2016,04,15,14,05,11.30
2016,04,15,14,06,11.30
2016,04,15,14,07,11.30
2016,04,15,14,08,11.40
2016,04,15,14,09,11.50
2016,04,15,14,10,11.50
2016,04,15,14,11,11.60
2016,04,15,14,12,11.60
2016,04,15,14,13,11.60
2016,04,15,14,14,11.70
2016,04,15,14,15,11.70
2016,04,15,14,16,11.70
2016,04,15,14,17,11.70
2016,04,15,14,18,11.70
2016,04,15,14,19,11.70
2016,04,15,14,20,11.70
2016,04,15,14,21,11.70
2016,04,15,14,22,11.70
2016,04,15,14,23,11.70
2016,04,15,14,24,11.70
2016,04,15,14,25,11.70
2016,04,15,14,26,11.70
2016,04,15,14,27,11.70
2016,04,15,14,28,11.70
2016,04,15,14,29,11.80
2016,04,15,14,30,11.80
2016,04,15,14,31,11.80
2016,04,15,14,32,11.80
2016,04,15,14,33,11.90
2016,04,15,14,34,11.90
2016,04,15,14,35,11.90
2016,04,15,14,36,11.90
2016,04,15,14,37,11.90
2016,04,15,14,38,11.90
2016,04,15,14,39,11.90
2016,04,15,14,40,12.00
2016,04,15,14,41,12.00
2016,04,15,14,42,12.00
2016,04,15,14,43,12.00
2016,04,15,14,44,12.10
2016,04,15,14,45,12.10
2016,04,15,14,46,12.10
2016,04,15,14,47,12.20
2016,04,15,14,48,12.20
2016,04,15,14,49,12.30
2016,04,15,14,50,12.30
2016,04,15,14,51,12.40
2016,04,15,14,52,12.40
2016,04,15,14,53,12.40
2016,04,15,14,54,12.40
2016,04,15,14,55,12.40
2016,04,15,14,56,12.30
2016,04,15,14,57,12.30
2016,04,15,14,58,12.30
2016,04,15,14,59,12.40
2016,04,15,15,00,12.40
2016,04,15,15,01,12.40
2016,04,15,15,02,12.40
2016,04,15,15,03,12.40
2016,04,15,15,04,12.40
2016,04,15,15,05,12.40
2016,04,15,15,06,12.40
2016,04,15,15,07,12.30
2016,04,15,15,08,12.30
2016,04,15,15,09,12.30
2016,04,15,15,10,12.30
2016,04,15,15,11,12.30
2016,04,15,15,12,12.30
2016,04,15,15,13,12.30
2016,04,15,15,14,12.30
2016,04,15,15,15,12.30
2016,04,15,15,16,12.30
2016,04,15,15,17,12.30
2016,04,15,15,18,12.30
2016,04,15,15,19,12.30
2016,04,15,15,20,12.40
2016,04,15,15,21,12.40
2016,04,15,15,22,12.40
2016,04,15,15,23,12.50
2016,04,15,15,24,12.60
2016,04,15,15,25,12.60
2016,04,15,15,26,12.70
2016,04,15,15,27,12.80
2016,04,15,15,28,12.80
2016,04,15,15,29,12.80
2016,04,15,15,30,12.80
2016,04,15,15,31,12.80
2016,04,15,15,32,12.80
2016,04,15,15,33,12.80
2016,04,15,15,34,12.80
2016,04,15,15,35,12.70
2016,04,15,15,36,12.70
2016,04,15,15,37,12.70
2016,04,15,15,38,12.80
2016,04,15,15,39,12.80
2016,04,15,15,40,12.90
2016,04,15,15,41,12.90
2016,04,15,15,42,12.90
2016,04,15,15,43,12.90
2016,04,15,15,44,12.90
2016,04,15,15,45,12.80
2016,04,15,15,46,12.70
2016,04,15,15,47,12.70
2016,04,15,15,48,12.70
2016,04,15,15,49,12.60
2016,04,15,15,50,12.60
2016,04,15,15,51,12.60
2016,04,15,15,52,12.70
2016,04,15,15,53,12.70
2016,04,15,15,54,12.70
2016,04,15,15,55,12.70
2016,04,15,15,56,12.70
2016,04,15,15,57,12.70
2016,04,15,15,58,12.70
2016,04,15,15,59,12.70
2016,04,15,16,00,12.60
2016,04,15,16,01,12.70
2016,04,15,16,02,12.70
2016,04,15,16,03,12.70
2016,04,15,16,04,12.80
2016,04,15,16,05,12.80
2016,04,15,16,06,12.80
2016,04,15,16,07,12.80
2016,04,15,16,08,12.70
2016,04,15,16,09,12.70
2016,04,15,16,10,12.70
2016,04,15,16,11,12.70
2016,04,15,16,12,12.60
2016,04,15,16,13,12.60
2016,04,15,16,14,12.50
2016,04,15,16,15,12.50
2016,04,15,16,16,12.40
2016,04,15,16,17,12.40
2016,04,15,16,18,12.50
2016,04,15,16,19,12.50
2016,04,15,16,20,12.50
2016,04,15,16,21,12.50
2016,04,15,16,22,12.40
2016,04,15,16,23,12.40
2016,04,15,16,24,12.40
2016,04,15,16,25,12.40
2016,04,15,16,26,12.40
2016,04,15,16,27,12.40
2016,04,15,16,28,12.30
2016,04,15,16,29,12.30
2016,04,15,16,30,12.20
2016,04,15,16,31,12.20
2016,04,15,16,32,12.10
2016,04,15,16,33,12.10
2016,04,15,16,34,12.10
2016,04,15,16,35,12.10
2016,04,15,16,36,12.10
2016,04,15,16,37,12.00
2016,04,15,16,38,12.00
2016,04,15,16,39,11.90
2016,04,15,16,40,11.90
2016,04,15,16,41,11.90
2016,04,15,16,42,11.90
2016,04,15,16,43,12.00
2016,04,15,16,44,12.00
2016,04,15,16,45,12.00
2016,04,15,16,46,12.10
2016,04,15,16,47,12.10
2016,04,15,16,48,12.10
2016,04,15,16,49,12.10
2016,04,15,16,50,12.00
2016,04,15,16,51,11.90
2016,04,15,16,52,11.90
2016,04,15,16,53,11.90
2016,04,15,16,54,11.90
2016,04,15,16,55,11.80
2016,04,15,16,56,11.90
2016,04,15,16,57,11.90
2016,04,15,16,58,11.90
2016,04,15,16,59,11.80
2016,04,15,17,00,11.80
2016,04,15,17,01,11.80
2016,04,15,17,02,11.80
2016,04,15,17,03,11.90
2016,04,15,17,04,11.90
2016,04,15,17,05,11.90
2016,04,15,17,06,11.90
2016,04,15,17,07,11.90
2016,04,15,17,08,11.90
2016,04,15,17,09,11.90
2016,04,15,17,10,11.90
2016,04,15,17,11,12.00
2016,04,15,17,12,12.00
2016,04,15,17,13,12.00
2016,04,15,17,14,12.00
2016,04,15,17,15,12.00
2016,04,15,17,16,11.90
2016,04,15,17,17,11.90
2016,04,15,17,18,11.90
2016,04,15,17,19,11.90
2016,04,15,17,20,11.90
2016,04,15,17,21,11.90
2016,04,15,17,22,11.90
2016,04,15,17,23,11.90
2016,04,15,17,24,12.00
2016,04,15,17,25,12.00
2016,04,15,17,26,12.00
2016,04,15,17,27,12.00
2016,04,15,17,28,12.00
2016,04,15,17,29,12.00
2016,04,15,17,30,12.00
2016,04,15,17,31,12.00
2016,04,15,17,32,12.00
2016,04,15,17,33,12.00
2016,04,15,17,34,12.00
2016,04,15,17,35,11.90
2016,04,15,17,36,11.90
2016,04,15,17,37,12.00
2016,04,15,17,38,12.00
2016,04,15,17,39,12.00
2016,04,15,17,40,12.00
2016,04,15,17,41,11.90
2016,04,15,17,42,11.90
2016,04,15,17,43,11.90
2016,04,15,17,44,11.90